Weather History for KEVM - November, 2012

Change the Weather History Date:

Thursday, November 8, 2012

  Actual Average Record
Temperature  
Mean Temperature 38 °F -  
Max Temperature 44 °F 37 °F 71 °F (1999)
Min Temperature 33 °F 23 °F -6 °F (1991)
Degree Days  
Heating Degree Days 26    
Moisture  
Dew Point 33 °F    
Average Humidity 82    
Maximum Humidity 93    
Minimum Humidity 61    
Precipitation  
Precipitation 0.00 in - - ()
Sea Level Pressure  
Sea Level Pressure 29.95 in    
Wind  
Wind Speed 8 mph (WSW)    
Max Wind Speed 15 mph    
Max Gust Speed 20 mph    
Visibility 10 miles    
Events Rain    
Averages and records for this station are not official NWS values.
T = Trace of Precipitation, MM = Missing Value Source: NWS Daily Summary

Daily Weather History Graph

Daily Weather History Graph

Search for Another Location

Airport or City:

Trip Planner

Search our weather history database for the weather conditions in past years. The results will help you decide how hot, cold, wet, or windy it might be!

Date:

Astronomy

Nov. 08, 2012 Rise Set
Actual Time 7:04 AM CST 4:41 PM CST
Civil Twilight 6:32 AM CST 5:14 PM CST
Nautical Twilight 5:55 AM CST 5:51 PM CST
Astronomical Twilight 5:19 AM CST 6:27 PM CST
Moon 12:37 AM CST (11/8) 1:44 PM CST (11/8)
Length of Visible Light 10h 42m
Length of Day
9h 37m
Waning Crescent, 32% of the Moon is Illuminated
Nov 8
Waning Crescent
Nov 13
New
Nov 20
First Quarter
Nov 28
Full
Dec 6
Last Quarter

Hourly Weather History & Observations

Time (CST) Temp. Windchill Dew Point Humidity Pressure Visibility Wind Dir Wind Speed Gust Speed Precip Events Conditions
12:10 AM 35.6 °F 29.9 °F 32.0 °F 87% 29.99 in 10.0 mi South 6.9 mph - N/A   Overcast
12:30 AM 35.6 °F 29.9 °F 32.0 °F 87% 29.98 in 10.0 mi SSE 6.9 mph - N/A   Overcast
1:09 AM 35.6 °F 30.7 °F 32.0 °F 87% 29.99 in 7.0 mi South 5.8 mph - N/A Rain Light Rain
1:30 AM 35.6 °F 29.2 °F 33.8 °F 93% 29.99 in 10.0 mi South 8.1 mph - N/A Rain Light Rain
1:49 AM 35.6 °F 29.9 °F 33.8 °F 93% 29.99 in 10.0 mi South 6.9 mph - N/A   Overcast
2:09 AM 35.6 °F 31.7 °F 33.8 °F 93% 29.98 in 10.0 mi SSE 4.6 mph - N/A   Overcast
2:30 AM 35.6 °F 30.7 °F 33.8 °F 93% 29.97 in 10.0 mi SSE 5.8 mph - N/A   Overcast
2:49 AM 35.6 °F 29.2 °F 33.8 °F 93% 29.96 in 10.0 mi SE 8.1 mph - N/A   Overcast
3:09 AM 35.6 °F 30.7 °F 33.8 °F 93% 29.96 in 10.0 mi SSE 5.8 mph - N/A   Overcast
3:30 AM 35.6 °F 29.9 °F 33.8 °F 93% 29.95 in 10.0 mi SSE 6.9 mph - N/A   Overcast
3:49 AM 35.6 °F 29.2 °F 33.8 °F 93% 29.93 in 7.0 mi SSE 8.1 mph - N/A   Overcast
4:09 AM 35.6 °F 28.6 °F 33.8 °F 93% 29.92 in 10.0 mi SSE 9.2 mph - N/A   Mostly Cloudy
4:29 AM 35.6 °F 29.2 °F 32.0 °F 87% 29.92 in 10.0 mi SSE 8.1 mph - N/A   Overcast
4:49 AM 35.6 °F 28.6 °F 32.0 °F 87% 29.91 in 10.0 mi South 9.2 mph - N/A   Mostly Cloudy
5:10 AM 35.6 °F 29.2 °F 32.0 °F 87% 29.91 in 10.0 mi South 8.1 mph - N/A   Scattered Clouds
5:29 AM 35.6 °F 28.0 °F 32.0 °F 87% 29.90 in 10.0 mi South 10.4 mph - N/A   Mostly Cloudy
5:49 AM 35.6 °F 28.0 °F 32.0 °F 87% 29.90 in 10.0 mi South 10.4 mph - N/A   Scattered Clouds
6:10 AM 35.6 °F 29.2 °F 32.0 °F 87% 29.90 in 10.0 mi South 8.1 mph - N/A   Scattered Clouds
6:29 AM 33.8 °F 27.0 °F 32.0 °F 93% 29.88 in 10.0 mi South 8.1 mph 17.3 mph N/A   Scattered Clouds
6:49 AM - - - N/A% 29.89 in 10.0 mi South 5.8 mph - N/A   Clear
7:10 AM 33.8 °F 27.0 °F 32.0 °F 93% 29.89 in 10.0 mi South 8.1 mph - N/A   Clear
7:29 AM 33.8 °F 27.0 °F 32.0 °F 93% 29.89 in 10.0 mi South 8.1 mph - N/A   Scattered Clouds
7:50 AM 35.6 °F 28.6 °F 32.0 °F 87% 29.90 in 10.0 mi South 9.2 mph - N/A   Clear
8:09 AM 35.6 °F 29.2 °F 32.0 °F 87% 29.91 in 10.0 mi South 8.1 mph - N/A   Clear
8:29 AM 35.6 °F 29.9 °F 32.0 °F 87% 29.92 in 10.0 mi SSW 6.9 mph - N/A   Clear
8:50 AM 35.6 °F 27.5 °F 32.0 °F 87% 29.92 in 10.0 mi SSW 11.5 mph - N/A   Clear
9:09 AM 35.6 °F 29.2 °F 32.0 °F 87% 29.90 in 10.0 mi SSW 8.1 mph 18.4 mph N/A   Clear
9:29 AM 35.6 °F 27.5 °F 32.0 °F 87% 29.88 in 10.0 mi South 11.5 mph 16.1 mph N/A   Clear
9:49 AM 37.4 °F 30.8 °F 32.0 °F 81% 29.87 in 10.0 mi South 9.2 mph - N/A   Scattered Clouds
10:09 AM 37.4 °F 30.8 °F 32.0 °F 81% 29.86 in 10.0 mi SSW 9.2 mph 19.6 mph N/A   Scattered Clouds
10:30 AM 41.0 °F 34.3 °F 32.0 °F 70% 29.89 in 10.0 mi SW 11.5 mph 16.1 mph N/A   Clear
10:49 AM 41.0 °F 33.1 °F 32.0 °F 70% 29.89 in 10.0 mi WSW 15.0 mph - N/A   Scattered Clouds
11:10 AM 41.0 °F 34.7 °F 32.0 °F 70% 29.88 in 10.0 mi SW 10.4 mph 17.3 mph N/A   Scattered Clouds
11:30 AM 42.8 °F 37.0 °F 32.0 °F 66% 29.88 in 10.0 mi WSW 10.4 mph - N/A   Clear
11:49 AM 42.8 °F 36.6 °F 32.0 °F 66% 29.87 in 10.0 mi SW 11.5 mph - N/A   Clear
12:10 PM 44.6 °F 40.7 °F 32.0 °F 61% 29.86 in 10.0 mi SW 6.9 mph - N/A   Scattered Clouds
12:30 PM 42.8 °F 37.5 °F 32.0 °F 66% 29.87 in 10.0 mi WSW 9.2 mph - N/A   Scattered Clouds
12:49 PM 44.6 °F 39.2 °F 32.0 °F 61% 29.87 in 10.0 mi West 10.4 mph - N/A   Clear
1:09 PM 42.8 °F 37.5 °F 32.0 °F 66% 29.88 in 10.0 mi West 9.2 mph - N/A   Mostly Cloudy
1:30 PM 42.8 °F 38.0 °F 32.0 °F 66% 29.88 in 10.0 mi West 8.1 mph - N/A   Overcast
1:49 PM 42.8 °F 39.3 °F 32.0 °F 66% 29.89 in 10.0 mi WNW 5.8 mph - N/A   Overcast
2:09 PM 42.8 °F 36.6 °F 32.0 °F 66% 29.89 in 10.0 mi NW 11.5 mph - N/A   Overcast
2:30 PM 42.8 °F 37.0 °F 33.8 °F 70% 29.91 in 10.0 mi WNW 10.4 mph - N/A   Overcast
2:49 PM 42.8 °F 39.3 °F 32.0 °F 66% 29.91 in 10.0 mi West 5.8 mph 9.2 mph N/A   Overcast
3:09 PM 42.8 °F 38.0 °F 32.0 °F 66% 29.92 in 10.0 mi NW 8.1 mph - N/A   Overcast
3:30 PM 41.0 °F 35.8 °F 32.0 °F 70% 29.93 in 10.0 mi NW 8.1 mph - N/A   Overcast
3:49 PM 41.0 °F 35.8 °F 32.0 °F 70% 29.95 in 10.0 mi WNW 8.1 mph - N/A   Overcast
4:10 PM 41.0 °F 34.7 °F 33.8 °F 76% 29.96 in 10.0 mi NW 10.4 mph - N/A   Overcast
4:29 PM 41.0 °F 35.8 °F 33.8 °F 76% 29.97 in 10.0 mi NW 8.1 mph - N/A   Overcast
4:49 PM 37.4 °F 30.8 °F 33.8 °F 87% 29.98 in 10.0 mi NW 9.2 mph - N/A   Overcast
5:10 PM 37.4 °F 33.8 °F 32.0 °F 81% 29.98 in 10.0 mi North 4.6 mph - N/A   Overcast
5:29 PM 37.4 °F 34.9 °F 32.0 °F 81% 29.99 in 10.0 mi NNW 3.5 mph - N/A   Overcast
5:50 PM 37.4 °F 34.9 °F 32.0 °F 81% 30.00 in 10.0 mi NW 3.5 mph - N/A   Overcast
6:09 PM 37.4 °F 32.8 °F 32.0 °F 81% 30.00 in 10.0 mi NW 5.8 mph - N/A   Overcast
6:29 PM 37.4 °F 32.8 °F 32.0 °F 81% 30.01 in 10.0 mi NW 5.8 mph - N/A   Overcast
6:50 PM 37.4 °F 32.1 °F 33.8 °F 87% 30.01 in 10.0 mi NW 6.9 mph - N/A   Overcast
7:09 PM 37.4 °F 33.8 °F 33.8 °F 87% 30.01 in 10.0 mi NNW 4.6 mph - N/A   Overcast
7:29 PM 37.4 °F 32.1 °F 33.8 °F 87% 30.02 in 10.0 mi NNW 6.9 mph - N/A   Overcast
7:50 PM 37.4 °F 33.8 °F 35.6 °F 93% 30.02 in 7.0 mi NNW 4.6 mph - N/A   Overcast
8:09 PM 37.4 °F 34.9 °F 35.6 °F 93% 30.03 in 7.0 mi NW 3.5 mph - N/A   Overcast
8:29 PM 37.4 °F 32.8 °F 35.6 °F 93% 30.03 in 5.0 mi North 5.8 mph - N/A   Overcast
8:49 PM 37.4 °F 30.8 °F 33.8 °F 87% 30.04 in 10.0 mi NNE 9.2 mph - N/A   Overcast
9:09 PM 37.4 °F 32.8 °F 33.8 °F 87% 30.05 in 10.0 mi North 5.8 mph - N/A   Overcast
9:30 PM 37.4 °F 34.9 °F 33.8 °F 87% 30.05 in 10.0 mi North 3.5 mph - N/A   Overcast
9:49 PM 37.4 °F 33.8 °F 33.8 °F 87% 30.05 in 10.0 mi NNE 4.6 mph - N/A   Overcast
10:09 PM 37.4 °F 30.8 °F 33.8 °F 87% 30.05 in 10.0 mi NNW 9.2 mph - N/A   Overcast
10:29 PM 37.4 °F 30.8 °F 32.0 °F 81% 30.05 in 10.0 mi NE 9.2 mph - N/A   Overcast
10:49 PM 35.6 °F 28.6 °F 32.0 °F 87% 30.06 in 10.0 mi NNE 9.2 mph - N/A   Overcast
11:10 PM 35.6 °F 28.6 °F 32.0 °F 87% 30.07 in 10.0 mi NNE 9.2 mph - N/A   Overcast
11:29 PM 35.6 °F 29.9 °F 32.0 °F 87% 30.08 in 10.0 mi NNE 6.9 mph - N/A   Overcast
11:49 PM 35.6 °F 29.2 °F 32.0 °F 87% 30.09 in 10.0 mi NNE 8.1 mph - N/A   Overcast